| time (UTC) | temp F | wind direction | speed MPH | gust MPH | rain 1hr in | rain 24hr in | rain mn in | humidity % | barometer mb |
| 20260504184005 | 61 | 179 | 4.0 | 6.0 | 0.00 | 0.05 | 0.00 | 98 | 996.7 |
| 20260504183452 | 61 | 173 | 5.0 | 6.0 | 0.00 | 0.07 | 0.00 | 98 | 996.8 |
| 20260504183202 | 61 | 172 | 5.0 | 6.0 | 0.00 | 0.09 | 0.00 | 98 | 996.7 |
| 20260504182912 | 61 | 167 | 5.0 | 6.0 | 0.00 | 0.10 | 0.00 | 98 | 996.6 |
| 20260504181929 | 61 | 180 | 5.0 | 5.0 | 0.00 | 0.10 | 0.00 | 98 | 996.4 |
| 20260504181426 | 61 | 178 | 4.0 | 6.0 | 0.00 | 0.10 | 0.00 | 98 | 996.4 |
| 20260504180912 | 61 | 172 | 5.0 | 6.0 | 0.00 | 0.10 | 0.00 | 98 | 996.5 |
| 20260504180356 | 61 | 167 | 5.0 | 6.0 | 0.00 | 0.10 | 0.00 | 98 | 996.3 |
| 20260504175831 | 61 | 169 | 5.0 | 6.0 | 0.00 | 0.10 | 0.00 | 98 | 996.5 |
| 20260504175805 | 61 | 176 | 4.0 | 6.0 | 0.00 | 0.10 | 0.00 | 98 | 996.6 |
| 20260504174825 | 61 | 171 | 5.0 | 6.0 | 0.00 | 0.10 | 0.00 | 98 | 996.2 |
| 20260504174320 | 61 | 180 | 5.0 | 6.0 | 0.00 | 0.10 | 0.00 | 98 | 996.4 |
| 20260504173756 | 61 | 181 | 5.0 | 6.0 | 0.00 | 0.10 | 0.00 | 98 | 996.3 |
| 20260504173510 | 61 | 171 | 5.0 | 6.0 | 0.00 | 0.10 | 0.00 | 98 | 996.3 |
| 20260504172747 | 61 | 174 | 5.0 | 6.0 | 0.00 | 0.10 | 0.00 | 98 | 996.3 |
| 20260504172232 | 61 | 177 | 5.0 | 6.0 | 0.00 | 0.10 | 0.00 | 98 | 996.3 |
| 20260504171740 | 61 | 194 | 5.0 | 6.0 | 0.00 | 0.10 | 0.00 | 98 | 996.2 |
| 20260504171650 | 61 | 182 | 5.0 | 6.0 | 0.00 | 0.10 | 0.00 | 98 | 996.4 |
| 20260504170710 | 61 | 200 | 6.0 | 6.0 | 0.00 | 0.10 | 0.00 | 98 | 996.3 |
| 20260504170428 | 62 | 191 | 5.0 | 6.0 | 0.00 | 0.10 | 0.00 | 98 | 996.4 |
| 20260504150831 | 63 | 174 | 4.0 | 6.0 | 0.00 | 0.20 | 0.00 | 98 | 997.3 |
| 20260504150326 | 63 | 175 | 5.0 | 6.0 | 0.00 | 0.20 | 0.00 | 97 | 997.3 |
| 20260504141204 | 64 | 180 | 4.0 | 6.0 | 0.00 | 0.21 | 0.00 | 97 | 997.7 |
| 20260504140700 | 64 | 179 | 4.0 | 6.0 | 0.00 | 0.21 | 0.00 | 97 | 997.7 |
| 20260504140157 | 64 | 182 | 5.0 | 5.0 | 0.00 | 0.21 | 0.00 | 97 | 997.8 |
| 20260504130458 | 65 | 174 | 4.0 | 5.0 | 0.00 | 0.23 | 0.21 | 97 | 997.8 |
| 20260504110217 | 66 | 175 | 4.0 | 5.0 | 0.00 | 0.24 | 0.21 | 96 | 998.5 |
| 20260504100543 | 67 | 180 | 4.0 | 5.0 | 0.00 | 0.24 | 0.21 | 95 | 998.6 |
| 20260504081853 | 67 | 183 | 4.0 | 7.0 | 0.00 | 0.24 | 0.21 | 93 | 997.8 |
| 20260504081347 | 67 | 173 | 4.0 | 7.0 | 0.00 | 0.24 | 0.21 | 92 | 997.5 |
| 20260504080850 | 67 | 182 | 3.0 | 6.0 | 0.00 | 0.24 | 0.21 | 92 | 997.5 |
| 20260504080340 | 67 | 172 | 5.0 | 6.0 | 0.00 | 0.24 | 0.21 | 92 | 997.3 |
| 20260504070405 | 70 | 157 | 3.0 | 6.0 | 0.00 | 0.24 | 0.21 | 87 | 997.0 |
| 20260504060210 | 71 | 172 | 4.0 | 6.0 | 0.00 | 0.24 | 0.21 | 85 | 996.9 |
| 20260504050403 | 75 | 179 | 5.0 | 6.0 | 0.00 | 0.24 | 0.21 | 74 | 996.6 |
| 20260504045859 | 75 | 184 | 4.0 | 7.0 | 0.00 | 0.24 | 0.21 | 74 | 996.7 |
| 20260504045607 | 76 | 180 | 5.0 | 7.0 | 0.00 | 0.24 | 0.21 | 71 | 996.9 |
| 20260504044840 | 76 | 178 | 4.0 | 6.0 | 0.00 | 0.24 | 0.21 | 75 | 996.7 |
| 20260504044335 | 76 | 178 | 4.0 | 7.0 | 0.00 | 0.24 | 0.21 | 75 | 996.8 |
| 20260504043831 | 77 | 175 | 5.0 | 8.0 | 0.00 | 0.24 | 0.21 | 74 | 996.7 |
| 20260504043318 | 77 | 178 | 5.0 | 8.0 | 0.00 | 0.24 | 0.21 | 75 | 996.7 |
| 20260504042813 | 76 | 180 | 4.0 | 6.0 | 0.00 | 0.24 | 0.21 | 76 | 996.8 |
| 20260504042313 | 76 | 180 | 4.0 | 6.0 | 0.00 | 0.24 | 0.21 | 75 | 996.8 |
| 20260504041812 | 76 | 179 | 4.0 | 6.0 | 0.00 | 0.24 | 0.21 | 77 | 996.8 |
| 20260504041311 | 75 | 178 | 5.0 | 6.0 | 0.00 | 0.24 | 0.21 | 76 | 996.8 |
| 20260504040809 | 75 | 181 | 4.0 | 6.0 | 0.00 | 0.24 | 0.21 | 77 | 996.8 |
| 20260504040303 | 75 | 176 | 4.0 | 6.0 | 0.00 | 0.24 | 0.21 | 77 | 996.8 |
| 20260504035758 | 76 | 158 | 5.0 | 6.0 | 0.00 | 0.24 | 0.21 | 75 | 997.0 |
| 20260504035256 | 76 | 170 | 4.0 | 6.0 | 0.00 | 0.24 | 0.21 | 75 | 997.0 |
| 20260504034741 | 78 | 176 | 4.0 | 7.0 | 0.00 | 0.24 | 0.21 | 72 | 997.0 |
| 20260504034237 | 78 | 205 | 4.0 | 9.0 | 0.00 | 0.24 | 0.21 | 70 | 997.2 |
| 20260504033732 | 78 | 195 | 4.0 | 9.0 | 0.00 | 0.24 | 0.21 | 69 | 997.1 |
| 20260504033228 | 78 | 188 | 5.0 | 6.0 | 0.00 | 0.24 | 0.21 | 74 | 997.1 |
| 20260504032713 | 77 | 170 | 5.0 | 6.0 | 0.00 | 0.24 | 0.21 | 76 | 997.0 |
| 20260504032159 | 76 | 182 | 4.0 | 6.0 | 0.00 | 0.24 | 0.21 | 79 | 997.3 |
| 20260504031923 | 76 | 175 | 4.0 | 7.0 | 0.00 | 0.24 | 0.21 | 77 | 997.1 |
| 20260504031416 | 78 | 192 | 4.0 | 7.0 | 0.00 | 0.24 | 0.21 | 73 | 997.4 |
| 20260504030647 | 77 | 200 | 5.0 | 7.0 | 0.00 | 0.24 | 0.21 | 73 | 997.2 |
| 20260504030142 | 77 | 193 | 5.0 | 7.0 | 0.00 | 0.24 | 0.21 | 73 | 997.5 |
| 20260504025638 | 78 | 176 | 4.0 | 6.0 | 0.00 | 0.24 | 0.21 | 76 | 997.5 |
| 20260504025138 | 77 | 172 | 4.0 | 6.0 | 0.00 | 0.24 | 0.21 | 76 | 997.5 |
| 20260504024640 | 75 | 180 | 4.0 | 7.0 | 0.00 | 0.24 | 0.21 | 80 | 997.6 |
| 20260504024127 | 74 | 176 | 4.0 | 7.0 | 0.00 | 0.24 | 0.21 | 81 | 997.8 |
| 20260504023612 | 73 | 180 | 4.0 | 6.0 | 0.00 | 0.24 | 0.21 | 84 | 997.6 |
| 20260504023108 | 73 | 174 | 5.0 | 6.0 | 0.00 | 0.24 | 0.21 | 84 | 997.8 |
| 20260504022609 | 73 | 180 | 4.0 | 6.0 | 0.00 | 0.24 | 0.21 | 82 | 998.1 |
| 20260504022109 | 73 | 170 | 4.0 | 6.0 | 0.00 | 0.24 | 0.21 | 84 | 998.0 |
| 20260504021819 | 75 | 174 | 5.0 | 6.0 | 0.00 | 0.24 | 0.21 | 81 | 998.2 |
| 20260504021053 | 73 | 168 | 5.0 | 6.0 | 0.00 | 0.24 | 0.21 | 85 | 998.2 |
| 20260504020547 | 72 | 180 | 4.0 | 6.0 | 0.00 | 0.24 | 0.21 | 86 | 998.5 |
| 20260504020057 | 71 | 169 | 4.0 | 6.0 | 0.00 | 0.24 | 0.21 | 87 | 998.5 |
| 20260504015529 | 71 | 175 | 5.0 | 6.0 | 0.00 | 0.24 | 0.21 | 87 | 998.5 |
| 20260504015026 | 72 | 178 | 4.0 | 6.0 | 0.00 | 0.24 | 0.21 | 86 | 998.7 |
| 20260504014520 | 73 | 179 | 4.0 | 6.0 | 0.00 | 0.24 | 0.21 | 85 | 998.8 |
| 20260504014018 | 74 | 180 | 4.0 | 6.0 | 0.00 | 0.24 | 0.21 | 84 | 998.7 |
| 20260504013513 | 72 | 180 | 5.0 | 6.0 | 0.00 | 0.24 | 0.21 | 86 | 999.0 |
| 20260504013010 | 72 | 179 | 5.0 | 6.0 | 0.00 | 0.24 | 0.21 | 86 | 998.9 |
| 20260504012454 | 72 | 171 | 4.0 | 6.0 | 0.00 | 0.24 | 0.21 | 83 | 999.2 |
| 20260504011950 | 73 | 165 | 5.0 | 6.0 | 0.00 | 0.24 | 0.21 | 84 | 999.1 |
| 20260504011447 | 73 | 175 | 5.0 | 6.0 | 0.00 | 0.24 | 0.21 | 85 | 999.0 |
| 20260504010936 | 72 | 171 | 4.0 | 6.0 | 0.00 | 0.24 | 0.21 | 85 | 999.3 |
| 20260504010418 | 73 | 170 | 4.0 | 6.0 | 0.00 | 0.24 | 0.21 | 84 | 999.2 |
| 20260504005915 | 72 | 182 | 4.0 | 5.0 | 0.00 | 0.24 | 0.21 | 84 | 999.4 |
| 20260504005410 | 73 | 167 | 3.0 | 6.0 | 0.00 | 0.24 | 0.21 | 84 | 999.5 |
| 20260504004905 | 72 | 181 | 4.0 | 9.0 | 0.00 | 0.24 | 0.21 | 86 | 999.5 |
| 20260504004401 | 70 | 165 | 5.0 | 9.0 | 0.00 | 0.24 | 0.21 | 91 | 999.5 |
| 20260504003857 | 70 | 196 | 4.0 | 6.0 | 0.00 | 0.24 | 0.21 | 95 | 999.7 |
| 20260504003342 | 69 | 172 | 5.0 | 6.0 | 0.00 | 0.24 | 0.21 | 97 | 999.7 |
| 20260504002818 | 68 | 174 | 5.0 | 6.0 | 0.00 | 0.24 | 0.21 | 97 | 999.6 |
| 20260504002314 | 67 | 182 | 4.0 | 6.0 | 0.00 | 0.24 | 0.21 | 98 | 999.8 |
| 20260504001810 | 66 | 170 | 4.0 | 6.0 | 0.00 | 0.24 | 0.21 | 98 | 999.6 |
| 20260504001256 | 66 | 171 | 4.0 | 6.0 | 0.00 | 0.24 | 0.21 | 98 | 999.8 |
| 20260504000805 | 66 | 177 | 4.0 | 5.0 | 0.00 | 0.24 | 0.21 | 98 | 999.7 |
| 20260504000229 | 66 | 177 | 4.0 | 6.0 | 0.00 | 0.24 | 0.21 | 98 | 999.7 |
| 20260503235714 | 66 | 178 | 5.0 | 6.0 | 0.00 | 0.24 | 0.21 | 98 | 999.9 |
| 20260503235209 | 66 | 177 | 4.0 | 6.0 | 0.00 | 0.24 | 0.21 | 98 | 999.8 |
| 20260503234705 | 66 | 177 | 5.0 | 6.0 | 0.00 | 0.24 | 0.21 | 98 | 1000.0 |
| 20260503234151 | 66 | 177 | 4.0 | 6.0 | 0.00 | 0.24 | 0.21 | 98 | 1000.0 |
| 20260503233647 | 65 | 170 | 4.0 | 5.0 | 0.00 | 0.24 | 0.21 | 98 | 1000.0 |
| 20260503233132 | 65 | 171 | 4.0 | 6.0 | 0.00 | 0.24 | 0.21 | 98 | 1000.0 |
| 20260503232618 | 65 | 176 | 4.0 | 6.0 | 0.00 | 0.24 | 0.21 | 98 | 999.9 |
| 20260503232114 | 66 | 166 | 5.0 | 6.0 | 0.00 | 0.24 | 0.21 | 98 | 999.9 |
| 20260503231611 | 65 | 180 | 4.0 | 5.0 | 0.00 | 0.24 | 0.21 | 98 | 999.8 |
| 20260503231107 | 66 | 177 | 4.0 | 6.0 | 0.00 | 0.24 | 0.21 | 99 | 1000.1 |
| 20260503230602 | 65 | 176 | 5.0 | 6.0 | 0.00 | 0.24 | 0.21 | 99 | 999.9 |
| 20260503230104 | 65 | 173 | 4.0 | 6.0 | 0.00 | 0.24 | 0.21 | 98 | 999.8 |
| 20260503225553 | 66 | 171 | 5.0 | 6.0 | 0.00 | 0.24 | 0.21 | 99 | 999.7 |
| 20260503225251 | 65 | 179 | 3.0 | 6.0 | 0.00 | 0.24 | 0.21 | 99 | 999.8 |
| 20260503224736 | 65 | 178 | 5.0 | 6.0 | 0.00 | 0.24 | 0.21 | 99 | 999.9 |
| 20260503224238 | 65 | 176 | 4.0 | 6.0 | 0.00 | 0.24 | 0.21 | 99 | 999.7 |
| 20260503223510 | 65 | 172 | 4.0 | 5.0 | 0.00 | 0.24 | 0.21 | 99 | 999.9 |
| 20260503222942 | 64 | 178 | 5.0 | 6.0 | 0.00 | 0.24 | 0.21 | 99 | 1000.1 |
| 20260503222438 | 65 | 174 | 4.0 | 6.0 | 0.00 | 0.24 | 0.21 | 99 | 1000.1 |
| 20260503221914 | 65 | 168 | 5.0 | 6.0 | 0.00 | 0.24 | 0.21 | 99 | 1000.0 |
| 20260503221409 | 65 | 179 | 4.0 | 6.0 | 0.00 | 0.24 | 0.21 | 99 | 999.9 |
| 20260503220905 | 64 | 180 | 4.0 | 6.0 | 0.00 | 0.26 | 0.21 | 99 | 999.8 |
| 20260503220623 | 64 | 179 | 4.0 | 5.0 | 0.00 | 0.26 | 0.21 | 99 | 999.8 |
| 20260503215901 | 64 | 180 | 4.0 | 5.0 | 0.00 | 0.26 | 0.21 | 99 | 999.8 |
| 20260503215353 | 65 | 183 | 4.0 | 5.0 | 0.00 | 0.26 | 0.21 | 99 | 999.7 |
| 20260503214838 | 64 | 175 | 4.0 | 5.0 | 0.00 | 0.26 | 0.21 | 99 | 999.7 |
| 20260503214330 | 65 | 186 | 4.0 | 5.0 | 0.00 | 0.26 | 0.21 | 99 | 999.7 |
| 20260503213843 | 64 | 177 | 4.0 | 6.0 | 0.00 | 0.26 | 0.21 | 99 | 999.7 |
| 20260503213327 | 64 | 185 | 4.0 | 6.0 | 0.00 | 0.26 | 0.21 | 99 | 999.5 |
| 20260503213038 | 64 | 182 | 4.0 | 6.0 | 0.00 | 0.26 | 0.21 | 99 | 999.6 |
| 20260503212259 | 64 | 191 | 5.0 | 5.0 | 0.00 | 0.26 | 0.21 | 99 | 999.7 |
| 20260503211753 | 64 | 182 | 5.0 | 5.0 | 0.00 | 0.26 | 0.21 | 99 | 999.6 |
| 20260503211229 | 64 | 173 | 4.0 | 5.0 | 0.00 | 0.26 | 0.21 | 99 | 999.5 |
| 20260503210952 | 64 | 183 | 5.0 | 6.0 | 0.00 | 0.26 | 0.21 | 99 | 999.3 |
| 20260503210221 | 63 | 183 | 5.0 | 6.0 | 0.00 | 0.26 | 0.21 | 99 | 999.4 |
| 20260503205717 | 63 | 180 | 5.0 | 5.0 | 0.00 | 0.26 | 0.21 | 99 | 999.4 |
| 20260503205644 | 63 | 176 | 4.0 | 5.0 | 0.00 | 0.26 | 0.21 | 99 | 999.4 |
| 20260503204700 | 63 | 180 | 4.0 | 6.0 | 0.00 | 0.26 | 0.21 | 99 | 999.4 |
| 20260503204144 | 63 | 180 | 4.0 | 6.0 | 0.00 | 0.26 | 0.21 | 99 | 999.3 |
| 20260503203907 | 63 | 189 | 5.0 | 6.0 | 0.00 | 0.26 | 0.21 | 99 | 999.2 |
| 20260503203136 | 63 | 179 | 4.0 | 5.0 | 0.00 | 0.26 | 0.21 | 99 | 999.0 |
| 20260503202628 | 63 | 180 | 4.0 | 5.0 | 0.00 | 0.26 | 0.21 | 99 | 999.3 |
| 20260503202350 | 63 | 184 | 5.0 | 6.0 | 0.00 | 0.26 | 0.21 | 99 | 998.9 |
| 20260503201629 | 63 | 191 | 4.0 | 6.0 | 0.00 | 0.26 | 0.21 | 99 | 999.0 |
| 20260503201119 | 63 | 182 | 5.0 | 6.0 | 0.00 | 0.26 | 0.21 | 99 | 999.0 |
| 20260503200545 | 63 | 190 | 5.0 | 6.0 | 0.00 | 0.26 | 0.21 | 99 | 999.0 |
| 20260503200053 | 63 | 184 | 5.0 | 6.0 | 0.00 | 0.26 | 0.21 | 99 | 998.8 |
| 20260503195537 | 63 | 182 | 4.0 | 6.0 | 0.00 | 0.26 | 0.21 | 99 | 998.8 |
| 20260503195301 | 63 | 191 | 5.0 | 6.0 | 0.01 | 0.26 | 0.21 | 99 | 998.8 |
| 20260503194509 | 63 | 184 | 5.0 | 5.0 | 0.04 | 0.26 | 0.21 | 99 | 998.7 |
| 20260503194003 | 63 | 186 | 5.0 | 5.0 | 0.05 | 0.26 | 0.21 | 99 | 998.7 |
| 20260503193458 | 63 | 182 | 5.0 | 5.0 | 0.07 | 0.26 | 0.21 | 99 | 998.6 |
| 20260503192958 | 63 | 181 | 4.0 | 5.0 | 0.09 | 0.26 | 0.21 | 99 | 998.6 |
| 20260503192456 | 63 | 180 | 5.0 | 5.0 | 0.10 | 0.26 | 0.21 | 99 | 998.6 |
| 20260503191958 | 63 | 172 | 5.0 | 5.0 | 0.10 | 0.26 | 0.21 | 99 | 998.6 |
| 20260503191714 | 63 | 170 | 5.0 | 5.0 | 0.10 | 0.26 | 0.21 | 99 | 998.6 |
| 20260503190950 | 63 | 174 | 4.0 | 5.0 | 0.10 | 0.26 | 0.21 | 99 | 998.7 |
| 20260503190701 | 63 | 176 | 4.0 | 5.0 | 0.10 | 0.26 | 0.21 | 99 | 998.6 |
| 20260503185932 | 63 | 170 | 4.0 | 6.0 | 0.10 | 0.26 | 0.20 | 99 | 998.6 |
| 20260503185417 | 62 | 170 | 5.0 | 7.0 | 0.09 | 0.25 | 0.20 | 99 | 998.6 |
| 20260503185358 | 62 | 169 | 5.0 | 7.0 | 0.09 | 0.24 | 0.19 | 99 | 998.7 |
| 20260503184409 | 62 | 189 | 6.0 | 7.0 | 0.07 | 0.22 | 0.17 | 99 | 998.6 |